Russellville, AR

1:43 PM CST on January 18, 2017 (GMT -0600)
Russellville Regional

Weather History for KRUE - October, 2012

Change the Weather History Date:

Friday, October 26, 2012

  Actual Average (KHOT) Record (KHOT)
Temperature  
Mean Temperature 52 °F -  
Max Temperature 59 °F 71 °F 87 °F (1963)
Min Temperature 46 °F 47 °F 33 °F (1990)
Degree Days  
Heating Degree Days 14    
Growing Degree Days 2 (Base 50)    
Moisture  
Dew Point 38 °F    
Average Humidity 62    
Maximum Humidity 87    
Minimum Humidity 39    
Precipitation  
Precipitation 0.03 in - - ()
Sea Level Pressure  
Sea Level Pressure 30.19 in    
Wind  
Wind Speed 8 mph (North)    
Max Wind Speed 13 mph    
Max Gust Speed 17 mph    
Visibility 9 miles    
Events Rain    
Averages and records for this station are not official NWS values.
T = Trace of Precipitation, MM = Missing Value Source: NWS Daily Summary

Daily Weather History Graph

Daily Weather History Graph

Search for Another Location

Airport or City:

Trip Planner

Search our weather history database for the weather conditions in past years. The results will help you decide how hot, cold, wet, or windy it might be!

Date:

Astronomy

Oct. 26, 2012 Rise Set
Actual Time 7:28 AM CDT 6:23 PM CDT
Civil Twilight 7:02 AM CDT 6:49 PM CDT
Nautical Twilight 6:32 AM CDT 7:19 PM CDT
Astronomical Twilight 6:03 AM CDT 7:48 PM CDT
Moon 4:35 PM CDT (10/26) 4:31 AM CDT (10/26)
Length of Visible Light 11h 46m
Length of Day
10h 54m
Waxing Gibbous, 91% of the Moon is Illuminated
Oct 26
Waxing Gibbous
Oct 29
Full
Nov 6
Last Quarter
Nov 13
New
Nov 20
First Quarter

Hourly Weather History & Observations

Time (CDT) Temp. Windchill Dew Point Humidity Pressure Visibility Wind Dir Wind Speed Gust Speed Precip Events Conditions
12:11 AM 51.8 °F - 44.6 °F 76% 30.14 in 2.0 mi NNW 9.2 mph - 0.16 in Rain Heavy Rain
12:25 AM 50.0 °F - 46.4 °F 87% 30.12 in 2.0 mi North 9.2 mph - 0.27 in Rain Heavy Rain
1:53 AM 48.9 °F - 44.1 °F 83% 30.12 in 10.0 mi NNE 6.9 mph - 0.03 in   Overcast
2:53 AM 50.0 °F - 43.0 °F 77% 30.13 in 10.0 mi North 6.9 mph - N/A   Overcast
3:53 AM 50.0 °F - 42.1 °F 74% 30.14 in 10.0 mi NW 3.5 mph - N/A   Overcast
4:53 AM 50.0 °F - 42.1 °F 74% 30.15 in 10.0 mi North 5.8 mph - N/A   Overcast
5:53 AM 48.9 °F - 41.0 °F 74% 30.17 in 10.0 mi North 6.9 mph - N/A   Mostly Cloudy
6:53 AM 48.0 °F - 39.0 °F 71% 30.17 in 10.0 mi North 8.1 mph - N/A   Scattered Clouds
7:53 AM 46.9 °F - 37.9 °F 71% 30.18 in 10.0 mi North 6.9 mph - N/A   Clear
8:53 AM 48.9 °F - 37.9 °F 66% 30.21 in 10.0 mi North 9.2 mph - N/A   Clear
9:53 AM 50.0 °F - 37.9 °F 63% 30.24 in 10.0 mi North 11.5 mph 16.1 mph N/A   Overcast
10:53 AM 50.0 °F - 36.0 °F 59% 30.25 in 10.0 mi North 10.4 mph - N/A   Overcast
11:53 AM 51.1 °F - 36.0 °F 56% 30.27 in 10.0 mi North 11.5 mph - N/A   Overcast
12:53 PM 54.0 °F - 36.0 °F 51% 30.24 in 10.0 mi North 12.7 mph - N/A   Overcast
1:53 PM 55.0 °F - 36.0 °F 49% 30.23 in 10.0 mi NNE 9.2 mph - N/A   Overcast
2:53 PM 57.9 °F - 35.1 °F 42% 30.20 in 10.0 mi North 11.5 mph 16.1 mph N/A   Scattered Clouds
3:53 PM 57.9 °F - 34.0 °F 41% 30.19 in 10.0 mi North 10.4 mph 17.3 mph N/A   Clear
4:53 PM 57.9 °F - 33.1 °F 39% 30.19 in 10.0 mi NNE 11.5 mph - N/A   Clear
5:53 PM 55.9 °F - 33.1 °F 42% 30.20 in 10.0 mi North 9.2 mph - N/A   Clear
6:53 PM 52.0 °F - 33.1 °F 49% 30.23 in 10.0 mi North 5.8 mph - N/A   Clear
11:53 PM 46.0 °F 43.1 °F 30.9 °F 56% 30.29 in 10.0 mi North 5.8 mph - N/A   Unknown